Hourly Data Report for October 01, 2013

All times are specified in Local Standard Time (LST). Add 1 hour to adjust for Daylight Saving Time where and when it is observed.

KUGAARUK CLIMATE
NUNAVUT

68°32'15.060" N
89°47'47.020" W
15.80 m
2303094
71407
NBB

Download Data

Hourly Data (October 2013)
Hourly Data Report for October 1, 2013
Temp Definition
°C
Dew Point Temp Definition
°C
Rel Hum Definition
%
Wind Dir Definition
10's deg

Wind Spd Definition
km/h
Visibility Definition
km
Stn Press Definition
kPa
Hmdx Definition


Wind Chill Definition


Weather Definition


TIME
00:00 -3.0 -5.1 85 33 7   100.69   -6 LegendNANA
01:00 -2.7 -5.4 82 34 15   100.73   -8 LegendNANA
02:00 -2.8 -5.1 84 2 17   100.76   -8 LegendNANA
03:00 -3.1 -5.0 87 36 17   100.78   -9 LegendNANA
04:00 -3.1 -4.8 88 1 15   100.82   -8 LegendNANA
05:00 -3.2 -5.1 87 1 15   100.85   -8 LegendNANA
06:00 -3.1 -4.9 87 3 17   100.86   -9 LegendNANA
07:00 -3.0 -4.8 87 3 11   100.89   -7 LegendNANA
08:00 -2.9 -5.1 85 1 20   100.90   -9 LegendNANA
09:00 -2.7 -5.0 84 36 19   100.93   -8 LegendNANA
10:00 -2.3 -4.7 84 1 17   100.93   -8 LegendNANA
11:00 -2.5 -4.9 84 1 20   100.97   -8 LegendNANA
12:00
13:00
14:00 -1.0 -3.6 82 2 22   101.05   -7 LegendNANA
15:00 -1.4 -3.8 84 2 24   101.11   -8 LegendNANA
16:00 -1.8 -3.8 86 1 20   101.13   -8 LegendNANA
17:00 -1.9 -3.9 86 1 20   101.16   -8 LegendNANA
18:00 -2.2 -4.0 87 36 19   101.20   -8 LegendNANA
19:00 -2.5 -4.5 86 1 22   101.20   -9 LegendNANA
20:00 -2.3 -4.5 85 1 19   101.22   -8 LegendNANA
21:00 -2.2 -4.1 87 36 19   101.21   -8 LegendNANA
22:00 -2.1 -3.9 87 36 22   101.22   -8 LegendNANA
23:00 -2.1 -3.5 90 2 19   101.26   -8 LegendNANA

Notes on Data Quality.

Legend

  • E = Estimated
  • M = Missing
  • NA = Not Available
  • ‡ = Partner data that is not subject to review by the National Climate Archives
Date modified: